User: anonymous   Login
Location: Mentone
(34.5413°N, 85.5351°W)
Time: 03:28:01
(UTC-05:00)
Language:

ADEOS Rocket - Orbit

View from above orbital plane
View from above orbital plane
View from above satellite
View from above satellite

Ground track
Ground track

The orbit data is extracted from the following two-line orbital elements,

1 24279U 96046C   15215.15820624 -.00000009  00000-0  35372-4 0  9995
2 24279 098.6962 235.4675 0299268 233.9566 177.8549 13.47030122932152
Epoch (UTC): 03 August 2015 03:47:49
Eccentricity: 0.0299268
inclination: 98.6962°
perigee height: 860 km
apogee height: 1306 km
right ascension of ascending node: 235.4675°
argument of perigee: 233.9566°
revolutions per day: 13.47030122
mean anomaly at epoch: 177.8549°
orbit number at epoch: 93215

The dashed part of the orbit path shows where the satellite is in the earth's shadow,  

DLR